sat.trackr.live / text

‹ back to catalog

STARLINK-35515

NORAD 66488 · 2025-263D

PAYLOAD ACTIVE UNKNOWN

§ Identity

Operator
Country
US
Launch date
2025-11-15
Launch site
AFETR
Launch vehicle
Mass (kg)
RCS (m²)

Purposes: comms

External: N2YO · Heavens-Above · Gunter

§ Orbital elements

Epoch: 2026-09-20T11:50:01.966848Z

Period
94.27 min
Inclination
43.0043°
Eccentricity
0.0001385
Mean motion
15.27577222 rev/d
Perigee alt
482.1 km
Apogee alt
484.0 km
Semi-major
6,861.2 km
B*
3.2902e-4
RAAN
330.3717°
Arg perigee
275.4146°
Mean anomaly
84.6547°
Rev number
4,869

§ Raw data

STARLINK-355151 66488U 25263D   26263.49307832  .00008802  00000+0  32902-3 0  99912 66488  43.0043 330.3717 0001385 275.4146  84.6547 15.27577222 48699

JSON: /api/v1/satellites/66488 · /tle

For live sub-satellite position, see the globe view (requires WebGL).

§ Visibility from observer

Set your observer location to see the next 7 days of passes ≥ 10°. The values pass through the URL so the page stays shareable.

No JS? Fill the form by hand. The geolocation button needs JavaScript.